| time (UTC) | temp C | wind direction | speed KPH | gust KPH | rain 1hr cm | rain 24hr cm | rain mn cm | humidity % | barometer mb |
| 20260508063000 | 18 | 41 | 0.0 | 0.0 | 0.00 | 0.00 | 0.00 | 53 | |
| 20260508062500 | 17 | 356 | 6.4 | 6.4 | 0.00 | 0.00 | 0.00 | 52 | |
| 20260508061500 | 17 | 345 | 6.4 | 9.7 | 0.00 | 0.00 | 0.00 | 59 | |
| 20260508061000 | 17 | 334 | 6.4 | 6.4 | 0.00 | 0.00 | 0.00 | 64 | |
| 20260508060001 | 16 | 41 | 3.2 | 3.2 | 0.00 | 0.00 | 0.00 | 59 | |
| 20260508055500 | 16 | 59 | 3.2 | 3.2 | 0.00 | 0.00 | 0.00 | 62 | |
| 20260508055000 | 16 | 57 | 0.0 | 4.8 | 0.00 | 0.00 | 0.00 | 60 | |
| 20260508054500 | 16 | 338 | 4.8 | 4.8 | 0.00 | 0.00 | 0.00 | 63 | |
| 20260508054000 | 17 | 330 | 0.0 | 3.2 | 0.00 | 0.00 | 0.00 | 58 | |
| 20260508053000 | 16 | 269 | 1.6 | 1.6 | 0.00 | 0.00 | 0.00 | 54 | |
| 20260508052500 | 16 | 306 | 3.2 | 3.2 | 0.00 | 0.00 | 0.00 | 58 | |
| 20260508052000 | 16 | 308 | 3.2 | 3.2 | 0.00 | 0.00 | 0.00 | 54 | |
| 20260508051500 | 16 | 335 | 4.8 | 6.4 | 0.00 | 0.00 | 0.00 | 51 | |
| 20260508051000 | 16 | 332 | 4.8 | 4.8 | 0.00 | 0.00 | 0.00 | 51 | |
| 20260508050500 | 16 | 343 | 3.2 | 4.8 | 0.00 | 0.00 | 0.00 | 51 | |
| 20260508050000 | 15 | 332 | 4.8 | 4.8 | 0.00 | 0.00 | 0.00 | 56 | |
| 20260508045000 | 15 | 62 | 0.0 | 1.6 | 0.00 | 0.00 | 0.00 | 60 | |
| 20260508040500 | 13 | 254 | 3.2 | 3.2 | 0.00 | 0.00 | 0.00 | 61 | |
| 20260508040000 | 13 | 189 | 3.2 | 3.2 | 0.00 | 0.00 | 0.00 | 64 | |
| 20260508035500 | 13 | 232 | 0.0 | 3.2 | 0.00 | 0.00 | 0.00 | 66 | |
| 20260508035000 | 13 | 197 | 1.6 | 3.2 | 0.00 | 0.00 | 0.00 | 62 | |
| 20260508034500 | 13 | 321 | 4.8 | 4.8 | 0.00 | 0.00 | 0.00 | 60 | |
| 20260508034000 | 13 | 272 | 4.8 | 6.4 | 0.00 | 0.00 | 0.00 | 58 | |
| 20260508033500 | 13 | 249 | 3.2 | 3.2 | 0.00 | 0.00 | 0.00 | 56 | |
| 20260508033000 | 13 | 67 | 3.2 | 3.2 | 0.00 | 0.00 | 0.00 | 58 | |
| 20260508032500 | 13 | 271 | 3.2 | 4.8 | 0.00 | 0.00 | 0.00 | 56 | |
| 20260508032000 | 13 | 257 | 1.6 | 4.8 | 0.00 | 0.00 | 0.00 | 56 | |
| 20260508031500 | 13 | 279 | 4.8 | 6.4 | 0.00 | 0.00 | 0.00 | 57 | |
| 20260508031000 | 13 | 3 | 1.6 | 4.8 | 0.00 | 0.00 | 0.00 | 58 | |
| 20260508030500 | 14 | 345 | 1.6 | 3.2 | 0.00 | 0.00 | 0.00 | 57 | |
| 20260508030000 | 15 | 238 | 1.6 | 3.2 | 0.00 | 0.00 | 0.00 | 55 | |
| 20260508025500 | 15 | 309 | 0.0 | 0.0 | 0.00 | 0.00 | 0.00 | 53 | |
| 20260508025000 | 15 | 269 | 3.2 | 3.2 | 0.00 | 0.00 | 0.00 | 52 | |
| 20260508024500 | 15 | 82 | 0.0 | 1.6 | 0.00 | 0.00 | 0.00 | 48 | |
| 20260508024000 | 15 | 180 | 3.2 | 3.2 | 0.00 | 0.00 | 0.00 | 51 | |
| 20260508023500 | 15 | 88 | 3.2 | 4.8 | 0.00 | 0.00 | 0.00 | 51 | |
| 20260508023000 | 15 | 103 | 3.2 | 3.2 | 0.00 | 0.00 | 0.00 | 51 | |
| 20260508022500 | 15 | 94 | 4.8 | 4.8 | 0.00 | 0.00 | 0.00 | 51 | |
| 20260508022000 | 15 | 92 | 4.8 | 4.8 | 0.00 | 0.00 | 0.00 | 52 | |
| 20260508021500 | 15 | 159 | 1.6 | 1.6 | 0.00 | 0.00 | 0.00 | 57 | |
| 20260508021000 | 14 | 86 | 0.0 | 1.6 | 0.00 | 0.00 | 0.00 | 57 | |
| 20260508020500 | 15 | 234 | 1.6 | 3.2 | 0.00 | 0.00 | 0.00 | 57 | |
| 20260508020000 | 15 | 69 | 0.0 | 3.2 | 0.00 | 0.00 | 0.00 | 58 | |
| 20260508015500 | 15 | 40 | 0.0 | 0.0 | 0.00 | 0.00 | 0.00 | 62 | |
| 20260508015000 | 15 | 106 | 1.6 | 1.6 | 0.00 | 0.00 | 0.00 | 59 | |
| 20260508014500 | 14 | 81 | 0.0 | 1.6 | 0.00 | 0.00 | 0.00 | 60 | |
| 20260508014000 | 14 | 146 | 3.2 | 3.2 | 0.00 | 0.00 | 0.00 | 63 | |
| 20260508013500 | 14 | 44 | 0.0 | 1.6 | 0.00 | 0.00 | 0.00 | 62 | |
| 20260508013000 | 13 | 52 | 1.6 | 1.6 | 0.00 | 0.00 | 0.00 | 64 | |
| 20260508012500 | 13 | 139 | 0.0 | 1.6 | 0.00 | 0.00 | 0.00 | 64 | |
| 20260508012000 | 14 | 21 | 1.6 | 3.2 | 0.00 | 0.00 | 0.00 | 66 | |
| 20260508011500 | 14 | 107 | 3.2 | 3.2 | 0.00 | 0.00 | 0.00 | 65 | |
| 20260508011000 | 14 | 76 | 3.2 | 3.2 | 0.00 | 0.00 | 0.00 | 66 | |
| 20260508010501 | 14 | 118 | 0.0 | 0.0 | 0.00 | 0.00 | 0.00 | 66 | |
| 20260508010000 | 14 | 143 | 3.2 | 3.2 | 0.00 | 0.00 | 0.00 | 65 | |
| 20260508005500 | 14 | 9 | 1.6 | 1.6 | 0.00 | 0.00 | 0.00 | 64 | |
| 20260508005000 | 15 | 124 | 4.8 | 4.8 | 0.00 | 0.00 | 0.00 | 64 | |
| 20260508004500 | 15 | 100 | 1.6 | 3.2 | 0.00 | 0.00 | 0.00 | 63 | |
| 20260508004000 | 15 | 76 | 0.0 | 1.6 | 0.00 | 0.00 | 0.00 | 64 | |
| 20260508003500 | 14 | 133 | 0.0 | 0.0 | 0.00 | 0.00 | 0.00 | 64 | |
| 20260508003000 | 14 | 161 | 3.2 | 3.2 | 0.00 | 0.00 | 0.00 | 66 | |
| 20260508002501 | 14 | 89 | 3.2 | 3.2 | 0.00 | 0.00 | 0.00 | 65 | |
| 20260508002000 | 14 | 149 | 4.8 | 4.8 | 0.00 | 0.00 | 0.00 | 65 | |
| 20260508001500 | 14 | 271 | 1.6 | 4.8 | 0.00 | 0.00 | 0.00 | 67 | |
| 20260508001000 | 14 | 178 | 1.6 | 3.2 | 0.00 | 0.00 | 0.00 | 67 | |
| 20260508000500 | 14 | 195 | 3.2 | 4.8 | 0.00 | 0.00 | 0.00 | 66 | |
| 20260508000000 | 14 | 260 | 3.2 | 3.2 | 0.00 | 0.00 | 0.00 | 63 | |
| 20260507235500 | 15 | 203 | 1.6 | 3.2 | 0.00 | 0.00 | 0.00 | 65 | |
| 20260507235000 | 15 | 351 | 3.2 | 3.2 | 0.00 | 0.00 | 0.00 | 62 | |
| 20260507234500 | 15 | 40 | 0.0 | 3.2 | 0.00 | 0.00 | 0.00 | 63 | |
| 20260507234000 | 15 | 126 | 0.0 | 0.0 | 0.00 | 0.00 | 0.00 | 61 | |
| 20260507233500 | 15 | 296 | 1.6 | 1.6 | 0.00 | 0.00 | 0.00 | 64 | |
| 20260507233000 | 15 | 6 | 0.0 | 0.0 | 0.00 | 0.00 | 0.00 | 62 | |
| 20260507232500 | 15 | 161 | 0.0 | 0.0 | 0.00 | 0.00 | 0.00 | 62 | |
| 20260507232000 | 15 | 0 | 0.0 | 0.0 | 0.00 | 0.00 | 0.00 | 61 | |
| 20260507231500 | 15 | 253 | 0.0 | 0.0 | 0.00 | 0.00 | 0.00 | 64 | |
| 20260507231000 | 15 | 294 | 1.6 | 3.2 | 0.00 | 0.00 | 0.00 | 63 | |
| 20260507230500 | 15 | 171 | 0.0 | 1.6 | 0.00 | 0.00 | 0.00 | 59 | |
| 20260507230000 | 15 | 232 | 3.2 | 3.2 | 0.00 | 0.00 | 0.00 | 59 | |
| 20260507225500 | 15 | 145 | 3.2 | 3.2 | 0.00 | 0.00 | 0.00 | 58 | |
| 20260507225000 | 16 | 258 | 0.0 | 0.0 | 0.00 | 0.00 | 0.00 | 57 | |
| 20260507224500 | 16 | 130 | 3.2 | 3.2 | 0.00 | 0.00 | 0.00 | 57 | |
| 20260507224001 | 16 | 192 | 1.6 | 3.2 | 0.00 | 0.00 | 0.00 | 56 | |
| 20260507223500 | 15 | 141 | 1.6 | 1.6 | 0.00 | 0.00 | 0.00 | 56 | |
| 20260507223000 | 15 | 145 | 0.0 | 1.6 | 0.00 | 0.00 | 0.00 | 57 | |
| 20260507222500 | 16 | 322 | 0.0 | 0.0 | 0.00 | 0.00 | 0.00 | 57 | |
| 20260507222000 | 16 | 269 | 0.0 | 0.0 | 0.00 | 0.00 | 0.00 | 56 | |
| 20260507221500 | 16 | 89 | 0.0 | 0.0 | 0.00 | 0.00 | 0.00 | 53 | |
| 20260507221000 | 16 | 99 | 3.2 | 3.2 | 0.00 | 0.00 | 0.00 | 56 | |
| 20260507220500 | 15 | 85 | 3.2 | 3.2 | 0.00 | 0.00 | 0.00 | 58 | |
| 20260507220000 | 15 | 316 | 1.6 | 3.2 | 0.00 | 0.00 | 0.00 | 59 | |
| 20260507215500 | 16 | 354 | 1.6 | 3.2 | 0.00 | 0.00 | 0.00 | 57 | |
| 20260507215000 | 16 | 135 | 0.0 | 0.0 | 0.00 | 0.00 | 0.00 | 54 | |
| 20260507214500 | 16 | 144 | 4.8 | 4.8 | 0.00 | 0.00 | 0.00 | 56 | |
| 20260507214000 | 16 | 155 | 0.0 | 0.0 | 0.00 | 0.00 | 0.00 | 55 | |
| 20260507213500 | 15 | 190 | 0.0 | 0.0 | 0.00 | 0.00 | 0.00 | 58 | |
| 20260507213000 | 15 | 269 | 0.0 | 0.0 | 0.00 | 0.00 | 0.00 | 58 | |
| 20260507212500 | 16 | 323 | 1.6 | 3.2 | 0.00 | 0.00 | 0.00 | 61 | |
| 20260507212000 | 16 | 275 | 1.6 | 1.6 | 0.00 | 0.00 | 0.00 | 60 | |
| 20260507211500 | 16 | 50 | 0.0 | 0.0 | 0.00 | 0.00 | 0.00 | 57 | |
| 20260507211000 | 16 | 78 | 3.2 | 3.2 | 0.00 | 0.00 | 0.00 | 54 | |
| 20260507210500 | 16 | 96 | 4.8 | 4.8 | 0.00 | 0.00 | 0.00 | 57 | |
| 20260507210000 | 16 | 118 | 1.6 | 3.2 | 0.00 | 0.00 | 0.00 | 59 | |
| 20260507205500 | 16 | 216 | 1.6 | 1.6 | 0.00 | 0.00 | 0.00 | 59 | |
| 20260507205000 | 16 | 157 | 3.2 | 3.2 | 0.00 | 0.00 | 0.00 | 53 | |
| 20260507204500 | 16 | 130 | 3.2 | 3.2 | 0.00 | 0.00 | 0.00 | 54 | |
| 20260507204000 | 16 | 135 | 4.8 | 6.4 | 0.00 | 0.00 | 0.00 | 52 | |
| 20260507203500 | 16 | 104 | 1.6 | 3.2 | 0.00 | 0.00 | 0.00 | 50 | |
| 20260507203000 | 16 | 75 | 0.0 | 3.2 | 0.00 | 0.00 | 0.00 | 51 | |
| 20260507202500 | 16 | 125 | 0.0 | 3.2 | 0.00 | 0.00 | 0.00 | 52 | |
| 20260507202000 | 16 | 346 | 1.6 | 3.2 | 0.00 | 0.00 | 0.00 | 53 | |
| 20260507201501 | 16 | 127 | 3.2 | 3.2 | 0.00 | 0.00 | 0.00 | 52 | |
| 20260507201000 | 16 | 111 | 4.8 | 4.8 | 0.00 | 0.00 | 0.00 | 54 | |
| 20260507200500 | 16 | 287 | 1.6 | 1.6 | 0.00 | 0.00 | 0.00 | 55 | |
| 20260507200000 | 16 | 355 | 0.0 | 0.0 | 0.00 | 0.00 | 0.00 | 56 | |
| 20260507195500 | 16 | 338 | 1.6 | 3.2 | 0.00 | 0.00 | 0.00 | 58 | |
| 20260507195000 | 16 | 325 | 1.6 | 1.6 | 0.00 | 0.00 | 0.00 | 59 | |
| 20260507194500 | 16 | 63 | 1.6 | 1.6 | 0.00 | 0.00 | 0.00 | 59 | |
| 20260507194000 | 16 | 15 | 0.0 | 1.6 | 0.00 | 0.00 | 0.00 | 58 | |
| 20260507193500 | 17 | 163 | 1.6 | 3.2 | 0.00 | 0.00 | 0.00 | 59 | |
| 20260507193001 | 17 | 79 | 3.2 | 3.2 | 0.00 | 0.00 | 0.00 | 58 | |
| 20260507192500 | 17 | 21 | 3.2 | 3.2 | 0.00 | 0.00 | 0.00 | 54 | |
| 20260507192000 | 17 | 82 | 3.2 | 4.8 | 0.00 | 0.00 | 0.00 | 54 | |
| 20260507191501 | 17 | 19 | 3.2 | 3.2 | 0.00 | 0.00 | 0.00 | 52 | |
| 20260507191001 | 17 | 36 | 3.2 | 3.2 | 0.00 | 0.00 | 0.00 | 51 | |
| 20260507190501 | 17 | 9 | 3.2 | 3.2 | 0.00 | 0.00 | 0.00 | 52 | |
| 20260507190002 | 17 | 87 | 3.2 | 3.2 | 0.00 | 0.00 | 0.00 | 52 | |
| 20260507185501 | 17 | 56 | 1.6 | 3.2 | 0.00 | 0.00 | 0.00 | 52 | |
| 20260507185001 | 17 | 64 | 1.6 | 3.2 | 0.00 | 0.00 | 0.00 | 53 | |
| 20260507184504 | 17 | 204 | 0.0 | 1.6 | 0.00 | 0.00 | 0.00 | 58 | |
| 20260507184001 | 17 | 0 | 4.8 | 4.8 | 0.00 | 0.00 | 0.00 | 58 | |
| 20260507183500 | 17 | 8 | 3.2 | 4.8 | 0.00 | 0.00 | 0.00 | 58 | |
| 20260507183000 | 17 | 6 | 3.2 | 4.8 | 0.00 | 0.00 | 0.00 | 54 | |
| 20260507182501 | 17 | 12 | 3.2 | 4.8 | 0.00 | 0.00 | 0.00 | 55 | |
| 20260507182000 | 17 | 86 | 3.2 | 3.2 | 0.00 | 0.00 | 0.00 | 53 | |
| 20260507181500 | 17 | 134 | 3.2 | 3.2 | 0.00 | 0.00 | 0.00 | 55 | |
| 20260507181000 | 17 | 127 | 0.0 | 3.2 | 0.00 | 0.00 | 0.00 | 52 | |
| 20260507180516 | 17 | 2 | 3.2 | 3.2 | 0.00 | 0.00 | 0.00 | 53 | |
| 20260507180001 | 17 | 135 | 0.0 | 1.6 | 0.00 | 0.00 | 0.00 | 55 | |
| 20260507175501 | 17 | 20 | 3.2 | 3.2 | 0.00 | 0.00 | 0.00 | 54 | |
| 20260507175000 | 17 | 19 | 3.2 | 3.2 | 0.00 | 0.00 | 0.00 | 54 | |
| 20260507174501 | 17 | 92 | 1.6 | 1.6 | 0.00 | 0.00 | 0.00 | 56 | |
| 20260507174001 | 17 | 24 | 3.2 | 3.2 | 0.00 | 0.00 | 0.00 | 56 | |
| 20260507173500 | 18 | 76 | 3.2 | 4.8 | 0.00 | 0.00 | 0.00 | 55 | |
| 20260507173000 | 18 | 14 | 4.8 | 6.4 | 0.00 | 0.00 | 0.00 | 54 | |
| 20260507172503 | 18 | 30 | 3.2 | 4.8 | 0.00 | 0.00 | 0.00 | 54 | |
| 20260507172001 | 18 | 176 | 0.0 | 0.0 | 0.00 | 0.00 | 0.00 | 54 | |
| 20260507171505 | 18 | 12 | 3.2 | 3.2 | 0.00 | 0.00 | 0.00 | 51 | |
| 20260507171000 | 19 | 44 | 3.2 | 3.2 | 0.00 | 0.00 | 0.00 | 48 | |
| 20260507170501 | 20 | 320 | 0.0 | 1.6 | 0.00 | 0.00 | 0.00 | 42 | |
| 20260507170000 | 20 | 232 | 3.2 | 3.2 | 0.00 | 0.00 | 0.00 | 42 | |
| 20260507165509 | 20 | 253 | 4.8 | 4.8 | 0.00 | 0.00 | 0.00 | 44 | |
| 20260507165003 | 20 | 191 | 1.6 | 3.2 | 0.00 | 0.00 | 0.00 | 46 | |
| 20260507164500 | 20 | 325 | 4.8 | 9.7 | 0.00 | 0.00 | 0.00 | 43 | |
| 20260507164000 | 20 | 269 | 3.2 | 6.4 | 0.00 | 0.00 | 0.00 | 47 | |
| 20260507163504 | 20 | 345 | 4.8 | 8.0 | 0.00 | 0.00 | 0.00 | 49 | |
| 20260507163008 | 20 | 242 | 4.8 | 4.8 | 0.00 | 0.00 | 0.00 | 48 | |
| 20260507162501 | 20 | 12 | 3.2 | 4.8 | 0.00 | 0.00 | 0.00 | 46 | |
| 20260507162002 | 21 | 247 | 3.2 | 4.8 | 0.00 | 0.00 | 0.00 | 44 | |
| 20260507161500 | 21 | 355 | 3.2 | 3.2 | 0.00 | 0.00 | 0.00 | 42 | |
| 20260507161001 | 21 | 255 | 6.4 | 6.4 | 0.00 | 0.00 | 0.00 | 40 | |
| 20260507160500 | 22 | 257 | 1.6 | 3.2 | 0.00 | 0.00 | 0.00 | 37 | |
| 20260507160000 | 22 | 279 | 4.8 | 4.8 | 0.00 | 0.00 | 0.00 | 36 | |
| 20260507155500 | 22 | 284 | 4.8 | 4.8 | 0.00 | 0.00 | 0.00 | 36 | |
| 20260507155000 | 23 | 291 | 4.8 | 6.4 | 0.00 | 0.00 | 0.00 | 34 | |
| 20260507154500 | 23 | 256 | 6.4 | 8.0 | 0.00 | 0.00 | 0.00 | 32 | |
| 20260507154000 | 23 | 213 | 6.4 | 8.0 | 0.00 | 0.00 | 0.00 | 34 | |
| 20260507153500 | 23 | 257 | 3.2 | 4.8 | 0.00 | 0.00 | 0.00 | 35 | |
| 20260507153001 | 23 | 265 | 3.2 | 3.2 | 0.00 | 0.00 | 0.00 | 33 | |
| 20260507152500 | 23 | 235 | 1.6 | 3.2 | 0.00 | 0.00 | 0.00 | 33 | |
| 20260507152001 | 23 | 244 | 8.0 | 8.0 | 0.00 | 0.00 | 0.00 | 33 | |
| 20260507151500 | 23 | 186 | 3.2 | 6.4 | 0.00 | 0.00 | 0.00 | 33 | |
| 20260507151000 | 23 | 173 | 0.0 | 6.4 | 0.00 | 0.00 | 0.00 | 31 | |
| 20260507150500 | 24 | 222 | 0.0 | 3.2 | 0.00 | 0.00 | 0.00 | 31 | |
| 20260507150000 | 24 | 251 | 9.7 | 9.7 | 0.00 | 0.00 | 0.00 | 32 | |
| 20260507145500 | 24 | 211 | 4.8 | 8.0 | 0.00 | 0.00 | 0.00 | 31 | |
| 20260507145000 | 23 | 223 | 6.4 | 8.0 | 0.00 | 0.00 | 0.00 | 33 | |
| 20260507144500 | 23 | 211 | 8.0 | 9.7 | 0.00 | 0.00 | 0.00 | 34 | |
| 20260507144000 | 23 | 216 | 6.4 | 8.0 | 0.00 | 0.00 | 0.00 | 34 | |
| 20260507143500 | 23 | 254 | 3.2 | 4.8 | 0.00 | 0.00 | 0.00 | 34 | |
| 20260507143000 | 23 | 237 | 4.8 | 8.0 | 0.00 | 0.00 | 0.00 | 34 | |
| 20260507142500 | 23 | 251 | 6.4 | 9.7 | 0.00 | 0.00 | 0.00 | 34 | |
| 20260507142001 | 23 | 252 | 12.9 | 12.9 | 0.00 | 0.00 | 0.00 | 33 | |
| 20260507141501 | 23 | 241 | 4.8 | 6.4 | 0.00 | 0.00 | 0.00 | 35 | |
| 20260507141000 | 23 | 239 | 9.7 | 14.5 | 0.00 | 0.00 | 0.00 | 32 | |
| 20260507140501 | 23 | 239 | 12.9 | 12.9 | 0.00 | 0.00 | 0.00 | 32 | |
| 20260507140000 | 23 | 251 | 8.0 | 9.7 | 0.00 | 0.00 | 0.00 | 33 | |
| 20260507135501 | 23 | 260 | 9.7 | 12.9 | 0.00 | 0.00 | 0.00 | 33 | |
| 20260507135000 | 24 | 249 | 9.7 | 11.3 | 0.00 | 0.00 | 0.00 | 33 | |
| 20260507134501 | 24 | 269 | 9.7 | 9.7 | 0.00 | 0.00 | 0.00 | 33 | |
| 20260507134001 | 24 | 233 | 8.0 | 9.7 | 0.00 | 0.00 | 0.00 | 32 | |
| 20260507133500 | 24 | 222 | 9.7 | 11.3 | 0.00 | 0.00 | 0.00 | 31 | |
| 20260507133000 | 25 | 271 | 4.8 | 6.4 | 0.00 | 0.00 | 0.00 | 31 | |
| 20260507132500 | 24 | 253 | 6.4 | 8.0 | 0.00 | 0.00 | 0.00 | 30 | |
| 20260507132002 | 24 | 227 | 4.8 | 6.4 | 0.00 | 0.00 | 0.00 | 30 | |
| 20260507131501 | 25 | 225 | 6.4 | 8.0 | 0.00 | 0.00 | 0.00 | 30 | |
| 20260507131000 | 25 | 230 | 8.0 | 8.0 | 0.00 | 0.00 | 0.00 | 28 | |
| 20260507130500 | 25 | 229 | 9.7 | 9.7 | 0.00 | 0.00 | 0.00 | 28 | |
| 20260507130001 | 25 | 226 | 12.9 | 12.9 | 0.00 | 0.00 | 0.00 | 29 | |
| 20260507125500 | 25 | 272 | 6.4 | 8.0 | 0.00 | 0.00 | 0.00 | 30 | |
| 20260507125001 | 25 | 267 | 11.3 | 12.9 | 0.00 | 0.00 | 0.00 | 28 | |
| 20260507124501 | 25 | 273 | 6.4 | 6.4 | 0.00 | 0.00 | 0.00 | 27 | |
| 20260507124008 | 25 | 240 | 12.9 | 14.5 | 0.00 | 0.00 | 0.00 | 27 | |
| 20260507123501 | 25 | 266 | 6.4 | 9.7 | 0.00 | 0.00 | 0.00 | 25 | |
| 20260507123000 | 25 | 274 | 4.8 | 6.4 | 0.00 | 0.00 | 0.00 | 28 | |
| 20260507122500 | 26 | 242 | 14.5 | 16.1 | 0.00 | 0.00 | 0.00 | 26 | |
| 20260507122001 | 26 | 237 | 14.5 | 14.5 | 0.00 | 0.00 | 0.00 | 25 | |
| 20260507121501 | 26 | 191 | 11.3 | 11.3 | 0.00 | 0.00 | 0.00 | 24 | |
| 20260507121001 | 26 | 185 | 6.4 | 9.7 | 0.00 | 0.00 | 0.00 | 26 | |
| 20260507120500 | 26 | 219 | 9.7 | 14.5 | 0.00 | 0.00 | 0.00 | 26 | |
| 20260507120000 | 26 | 191 | 8.0 | 14.5 | 0.00 | 0.00 | 0.00 | 24 | |
| 20260507115500 | 26 | 170 | 3.2 | 3.2 | 0.00 | 0.00 | 0.00 | 24 | |
| 20260507115000 | 26 | 233 | 11.3 | 20.9 | 0.00 | 0.00 | 0.00 | 25 | |
| 20260507114500 | 26 | 232 | 6.4 | 11.3 | 0.00 | 0.00 | 0.00 | 24 | |
| 20260507114000 | 26 | 254 | 11.3 | 16.1 | 0.00 | 0.00 | 0.00 | 25 | |
| 20260507113501 | 26 | 256 | 6.4 | 8.0 | 0.00 | 0.00 | 0.00 | 25 | |
| 20260507113000 | 26 | 214 | 6.4 | 8.0 | 0.00 | 0.00 | 0.00 | 25 | |
| 20260507112500 | 26 | 175 | 12.9 | 14.5 | 0.00 | 0.00 | 0.00 | 25 | |
| 20260507112000 | 26 | 214 | 6.4 | 8.0 | 0.00 | 0.00 | 0.00 | 23 | |
| 20260507111500 | 26 | 192 | 3.2 | 8.0 | 0.00 | 0.00 | 0.00 | 24 | |
| 20260507111000 | 26 | 216 | 8.0 | 12.9 | 0.00 | 0.00 | 0.00 | 24 | |
| 20260507110500 | 26 | 287 | 9.7 | 9.7 | 0.00 | 0.00 | 0.00 | 25 | |
| 20260507110000 | 25 | 182 | 6.4 | 12.9 | 0.00 | 0.00 | 0.00 | 26 | |
| 20260507105500 | 25 | 200 | 12.9 | 17.7 | 0.00 | 0.00 | 0.00 | 26 | |
| 20260507105000 | 25 | 213 | 8.0 | 11.3 | 0.00 | 0.00 | 0.00 | 25 | |
| 20260507104500 | 25 | 182 | 3.2 | 8.0 | 0.00 | 0.00 | 0.00 | 24 | |
| 20260507104000 | 25 | 236 | 11.3 | 14.5 | 0.00 | 0.00 | 0.00 | 25 | |
| 20260507103500 | 26 | 170 | 9.7 | 9.7 | 0.00 | 0.00 | 0.00 | 26 | |
| 20260507103000 | 25 | 172 | 3.2 | 9.7 | 0.00 | 0.00 | 0.00 | 25 | |
| 20260507102500 | 25 | 194 | 14.5 | 16.1 | 0.00 | 0.00 | 0.00 | 24 | |
| 20260507102001 | 25 | 181 | 6.4 | 9.7 | 0.00 | 0.00 | 0.00 | 26 | |
| 20260507101500 | 26 | 174 | 12.9 | 14.5 | 0.00 | 0.00 | 0.00 | 27 | |
| 20260507101000 | 25 | 244 | 8.0 | 8.0 | 0.00 | 0.00 | 0.00 | 24 | |
| 20260507100500 | 25 | 201 | 3.2 | 3.2 | 0.00 | 0.00 | 0.00 | 27 | |
| 20260507100000 | 25 | 217 | 6.4 | 11.3 | 0.00 | 0.00 | 0.00 | 26 | |
| 20260507095500 | 25 | 201 | 6.4 | 8.0 | 0.00 | 0.00 | 0.00 | 28 | |
| 20260507095000 | 25 | 191 | 4.8 | 6.4 | 0.00 | 0.00 | 0.00 | 28 | |
| 20260507094500 | 25 | 213 | 11.3 | 12.9 | 0.00 | 0.00 | 0.00 | 28 | |
| 20260507094000 | 25 | 191 | 9.7 | 17.7 | 0.00 | 0.00 | 0.00 | 27 | |
| 20260507093500 | 25 | 355 | 4.8 | 9.7 | 0.00 | 0.00 | 0.00 | 27 | |
| 20260507093000 | 25 | 273 | 6.4 | 8.0 | 0.00 | 0.00 | 0.00 | 30 | |
| 20260507092501 | 25 | 212 | 0.0 | 6.4 | 0.00 | 0.00 | 0.00 | 28 | |
| 20260507092000 | 25 | 264 | 14.5 | 14.5 | 0.00 | 0.00 | 0.00 | 29 | |
| 20260507091500 | 25 | 213 | 6.4 | 9.7 | 0.00 | 0.00 | 0.00 | 28 | |
| 20260507091000 | 25 | 182 | 12.9 | 14.5 | 0.00 | 0.00 | 0.00 | 30 | |
| 20260507090500 | 25 | 182 | 12.9 | 14.5 | 0.00 | 0.00 | 0.00 | 27 | |
| 20260507090001 | 25 | 194 | 8.0 | 14.5 | 0.00 | 0.00 | 0.00 | 30 | |
| 20260507085500 | 25 | 230 | 4.8 | 6.4 | 0.00 | 0.00 | 0.00 | 32 | |
| 20260507085000 | 24 | 274 | 6.4 | 9.7 | 0.00 | 0.00 | 0.00 | 30 | |
| 20260507084500 | 25 | 254 | 11.3 | 11.3 | 0.00 | 0.00 | 0.00 | 29 | |
| 20260507084000 | 24 | 192 | 11.3 | 14.5 | 0.00 | 0.00 | 0.00 | 31 | |
| 20260507083500 | 24 | 238 | 3.2 | 6.4 | 0.00 | 0.00 | 0.00 | 31 | |
| 20260507083000 | 23 | 227 | 6.4 | 8.0 | 0.00 | 0.00 | 0.00 | 29 | |
| 20260507082500 | 24 | 256 | 4.8 | 9.7 | 0.00 | 0.00 | 0.00 | 30 | |
| 20260507082000 | 24 | 262 | 8.0 | 8.0 | 0.00 | 0.00 | 0.00 | 29 | |
| 20260507081500 | 24 | 279 | 6.4 | 6.4 | 0.00 | 0.00 | 0.00 | 31 | |
| 20260507081000 | 24 | 180 | 8.0 | 11.3 | 0.00 | 0.00 | 0.00 | 29 | |
| 20260507080500 | 24 | 234 | 4.8 | 9.7 | 0.00 | 0.00 | 0.00 | 32 | |
| 20260507080000 | 24 | 249 | 11.3 | 14.5 | 0.00 | 0.00 | 0.00 | 30 | |
| 20260507075500 | 24 | 247 | 8.0 | 8.0 | 0.00 | 0.00 | 0.00 | 31 | |
| 20260507075000 | 23 | 191 | 4.8 | 8.0 | 0.00 | 0.00 | 0.00 | 33 | |
| 20260507074500 | 22 | 355 | 6.4 | 6.4 | 0.00 | 0.00 | 0.00 | 39 | |
| 20260507074000 | 22 | 8 | 4.8 | 4.8 | 0.00 | 0.00 | 0.00 | 47 | |
| 20260507073500 | 22 | 10 | 3.2 | 3.2 | 0.00 | 0.00 | 0.00 | 37 | |
| 20260507073000 | 21 | 276 | 3.2 | 9.7 | 0.00 | 0.00 | 0.00 | 47 | |
| 20260507072500 | 21 | 352 | 9.7 | 9.7 | 0.00 | 0.00 | 0.00 | 49 | |
| 20260507072000 | 20 | 33 | 6.4 | 8.0 | 0.00 | 0.00 | 0.00 | 49 | |
| 20260507071500 | 20 | 358 | 6.4 | 8.0 | 0.00 | 0.00 | 0.00 | 50 | |
| 20260507071000 | 20 | 6 | 9.7 | 9.7 | 0.00 | 0.00 | 0.00 | 51 | |
| 20260507070500 | 20 | 14 | 3.2 | 4.8 | 0.00 | 0.00 | 0.00 | 50 | |
| 20260507070000 | 20 | 17 | 4.8 | 4.8 | 0.00 | 0.00 | 0.00 | 49 | |
| 20260507065500 | 20 | 3 | 3.2 | 4.8 | 0.00 | 0.00 | 0.00 | 50 | |
| 20260507065000 | 20 | 7 | 6.4 | 6.4 | 0.00 | 0.00 | 0.00 | 50 | |
| 20260507064500 | 20 | 13 | 1.6 | 3.2 | 0.00 | 0.00 | 0.00 | 52 | |
| 20260507064000 | 20 | 18 | 4.8 | 4.8 | 0.00 | 0.00 | 0.00 | 52 | |
| 20260507063500 | 19 | 26 | 3.2 | 6.4 | 0.00 | 0.00 | 0.00 | 54 |